Content
SEND FEEDBACK

Daily
Averages
Monthly
Summary
United States of America

PERU, ILLINOIS


Home > North America > United States > Illinois
Elevation: 460 feet     Latitude: 41 20N     Longitude: 089 08W

WEATHER
 
SELECT A DAY
Number of Records: 44,126;   Date Range: 9/1/12 - 8/12/14
 
SHARE

PRINT THIS DATA

[ ← Previous Day ]
WEATHER ALMANAC - JANUARY 31, 2013
[ Next Day → ]
[ °C ]   °F
Weather ElementAverageHighLow
Temperature13.2 °F19.4 °F (12:35 am)4.1 °F (11:35 pm)
Dewpoint6.5 °F14.9 °F (12:55 am)-3.3 °F (11:55 pm)
Humidity74.8 %83 % (12:55 am)69 % (1:35 pm)
Barometer29.96 in30.24 in (11:55 pm)29.73 in (12:35 am)
Wind Speed19.4 mph26.5 mph (12:55 am)
Wind Gust35.7 mph (5:55 am)
Weather ElementAverage
Visibility8.7 mi
Wind DirectionWNW (280 °)

Weather ElementTotal
Precipitation---
Heating Degree Days53.3 (Base 65)
Averaged from 71 records on January 31, 2013
WEATHER CONDITIONS BREAKOUT
WIND DIRECTION BREAKOUT
WEATHER BY HOUR - JANUARY 31, 2013
[ °C ]   °F
Local TimeTemperatureDewpointHumidityBarometerVisibilityWind DirectionWind SpeedGust SpeedPrecipitationEventsConditions
12:35 AM19.4 °F14.0 °F80 %29.73 in10.0 miWest (280°)15.0 mph25.3 mphSnowLight Snow
12:55 AM19.4 °F14.9 °F83 %29.74 in4.0 miWest (280°)26.5 mph34.5 mphSnowLight Snow
1:15 AM18.1 °F12.2 °F78 %29.75 in10.0 miWest (280°)24.2 mph34.5 mphOvercast
1:35 AM17.6 °F12.2 °F79 %29.76 in7.0 miWest (280°)19.6 mph32.2 mphSnowLight Snow
1:55 AM17.1 °F11.7 °F79 %29.77 in10.0 miWest (280°)20.7 mph31.1 mphMostly Cloudy
2:15 AM17.1 °F10.9 °F77 %29.77 in10.0 miWest (280°)18.4 mph28.8 mphMostly Cloudy
2:35 AM17.6 °F11.8 °F78 %29.78 in7.0 miWest (280°)17.3 mph25.3 mphSnowLight Snow
2:55 AM18.1 °F12.9 °F80 %29.78 in10.0 miWest (280°)15.0 mph25.3 mphSnowLight Snow
3:15 AM18.9 °F13.1 °F78 %29.78 in10.0 miWest (280°)18.4 mph34.5 mphOvercast
3:35 AM19.2 °F14.0 °F80 %29.78 in10.0 miWest (280°)16.1 mph24.2 mphSnowLight Snow
3:55 AM19.4 °F14.7 °F82 %29.78 in5.0 miWest (280°)15.0 mph21.9 mphSnowLight Snow
4:15 AM19.4 °F14.2 °F80 %29.78 in7.0 miWest (280°)21.9 mph32.2 mphSnowLight Snow
4:35 AM19.4 °F12.4 °F74 %29.79 in10.0 miWest (280°)21.9 mph31.1 mphOvercast
4:55 AM19.2 °F13.1 °F77 %29.79 in10.0 miWest (280°)17.3 mph24.2 mphSnowLight Snow
5:15 AM18.5 °F12.9 °F79 %29.78 in5.0 miWest (280°)11.5 mph23.0 mphSnowLight Snow
5:35 AM18.3 °F12.9 °F79 %29.79 in10.0 miWest (280°)16.1 mph21.9 mphSnowLight Snow
5:55 AM18.0 °F11.5 °F76 %29.80 in7.0 miWest (280°)26.5 mph35.7 mphSnowLight Snow
6:15 AM15.8 °F10.2 °F79 %29.81 in10.0 miWest (280°)17.3 mph31.1 mphMostly Cloudy
6:35 AM14.4 °F7.9 °F75 %29.83 in10.0 miWest (280°)21.9 mph28.8 mphOvercast
6:55 AM14.0 °F8.1 °F77 %29.83 in10.0 miWest (280°)17.3 mph28.8 mphMostly Cloudy
7:15 AM13.6 °F8.1 °F78 %29.84 in10.0 miWest (280°)13.8 mph23.0 mphScattered Clouds
7:35 AM13.8 °F8.1 °F78 %29.85 in10.0 miWest (280°)20.7 mph27.6 mphScattered Clouds
7:55 AM13.3 °F7.2 °F77 %29.86 in10.0 miWest (280°)12.7 mph21.9 mphMostly Cloudy
8:15 AM13.5 °F7.0 °F75 %29.87 in10.0 miWest (280°)20.7 mph27.6 mphScattered Clouds
8:35 AM14.2 °F7.9 °F76 %29.88 in10.0 miWest (280°)19.6 mph25.3 mphMostly Cloudy
8:55 AM14.4 °F7.7 °F75 %29.88 in10.0 miWest (280°)15.0 mph20.7 mphScattered Clouds
9:15 AM14.9 °F8.4 °F76 %29.88 in10.0 miWest (280°)24.2 mph31.1 mphMostly Cloudy
9:35 AM15.3 °F8.2 °F74 %29.89 in10.0 miWest (280°)21.9 mph27.6 mphMostly Cloudy
9:55 AM15.6 °F9.1 °F76 %29.90 in10.0 miWest (280°)21.9 mph29.9 mphMostly Cloudy
10:15 AM15.4 °F8.8 °F75 %29.91 in7.0 miWest (280°)21.9 mph27.6 mphMostly Cloudy
10:35 AM15.8 °F9.7 °F77 %29.92 in4.0 miWest (280°)17.3 mph24.2 mphHaze
10:55 AM16.5 °F9.9 °F75 %29.92 in7.0 miWest (280°)21.9 mph26.5 mphOvercast
11:15 AM16.3 °F9.7 °F75 %29.92 in10.0 miWest (280°)23.0 mph32.2 mphOvercast
11:35 AM16.3 °F9.0 °F73 %29.93 in10.0 miWest (280°)15.0 mph23.0 mphOvercast
11:55 AM16.5 °F9.7 °F74 %29.93 in7.0 miWest (280°)19.6 mph26.5 mphOvercast
12:15 PM15.6 °F8.2 °F73 %29.94 in10.0 miWest (280°)16.1 mph33.4 mphOvercast
12:35 PM16.0 °F8.6 °F73 %29.94 in10.0 miWest (280°)21.9 mph28.8 mphOvercast
12:55 PM15.8 °F7.9 °F71 %29.94 in10.0 miWest (280°)23.0 mph33.4 mphOvercast
1:15 PM15.6 °F8.1 °F72 %29.94 in10.0 miWest (280°)21.9 mph31.1 mphOvercast
1:35 PM15.8 °F7.3 °F69 %29.94 in10.0 miWest (280°)20.7 mph31.1 mphOvercast
1:55 PM15.1 °F7.7 °F73 %29.95 in7.0 miWest (280°)18.4 mph33.4 mphMostly Cloudy
2:15 PM14.9 °F7.3 °F72 %29.96 in7.0 miWest (280°)19.6 mph26.5 mphOvercast
2:35 PM14.4 °F8.6 °F78 %29.97 in2.5 miWest (280°)19.6 mph31.1 mphHaze
2:55 PM13.3 °F6.3 °F74 %29.98 in5.0 miWest (280°)23.0 mph33.4 mphHaze
3:15 PM13.3 °F5.7 °F72 %29.99 in7.0 miWest (280°)16.1 mph27.6 mphMostly Cloudy
3:35 PM12.2 °F5.0 °F73 %30.00 in10.0 miWest (280°)20.7 mph32.2 mphMostly Cloudy
3:55 PM12.6 °F4.3 °F69 %30.01 in10.0 miWest (280°)21.9 mph29.9 mphMostly Cloudy
4:15 PM11.8 °F4.1 °F71 %30.02 in10.0 miWest (280°)20.7 mph34.5 mphMostly Cloudy
4:35 PM11.8 °F5.0 °F74 %30.03 in7.0 miWest (280°)18.4 mph27.6 mphMostly Cloudy
4:55 PM10.9 °F3.2 °F71 %30.04 in10.0 miWest (280°)20.7 mph26.5 mphMostly Cloudy
5:15 PM10.4 °F3.6 °F74 %30.05 in7.0 miWest (280°)20.7 mph33.4 mphMostly Cloudy
5:35 PM9.9 °F2.1 °F71 %30.06 in10.0 miWest (280°)23.0 mph33.4 mphMostly Cloudy
5:55 PM9.5 °F1.9 °F71 %30.07 in10.0 miWest (280°)23.0 mph32.2 mphMostly Cloudy
6:15 PM9.1 °F2.3 °F74 %30.08 in10.0 miWest (280°)19.6 mph28.8 mphMostly Cloudy
6:35 PM9.1 °F1.9 °F73 %30.09 in10.0 miWest (280°)18.4 mph27.6 mphMostly Cloudy
6:55 PM8.6 °F1.4 °F73 %30.10 in7.0 miWest (280°)17.3 mph26.5 mphOvercast
7:15 PM8.2 °F1.8 °F75 %30.11 in2.5 miWest (280°)20.7 mph29.9 mphSnowLight Snow
7:35 PM7.2 °F-0.8 °F70 %30.12 in10.0 miWest (280°)20.7 mph31.1 mphScattered Clouds
7:55 PM6.8 °F-0.4 °F72 %30.13 in7.0 miWest (280°)20.7 mph27.6 mphMostly Cloudy
8:15 PM6.6 °F-0.4 °F73 %30.15 in7.0 miWest (280°)26.5 mph31.1 mphOvercast
8:35 PM6.3 °F-0.8 °F73 %30.16 in7.0 miWest (280°)21.9 mph28.8 mphOvercast
8:55 PM5.9 °F-1.1 °F73 %30.17 in10.0 miWest (280°)21.9 mph31.1 mphMostly Cloudy
9:15 PM5.7 °F-0.6 °F75 %30.18 in5.0 miWest (280°)15.0 mph26.5 mphHaze
9:35 PM5.4 °F-2.0 °F72 %30.18 in10.0 miWest (280°)20.7 mph29.9 mphMostly Cloudy
9:55 PM5.4 °F-2.2 °F71 %30.19 in10.0 miWest (280°)18.4 mph28.8 mphScattered Clouds
10:15 PM5.0 °F-2.2 °F72 %30.20 in10.0 miWest (280°)18.4 mph27.6 mphScattered Clouds
10:35 PM4.8 °F-2.4 °F72 %30.21 in10.0 miWest (280°)16.1 mph23.0 mphClear
10:55 PM4.6 °F-2.7 °F72 %30.21 in10.0 miWest (280°)18.4 mph24.2 mphScattered Clouds
11:15 PM4.3 °F-3.1 °F71 %30.23 in10.0 miWest (280°)16.1 mph21.9 mphClear
11:35 PM4.1 °F-3.1 °F72 %30.23 in10.0 miWest (280°)15.0 mph19.6 mphScattered Clouds
11:55 PM4.1 °F-3.3 °F71 %30.24 in10.0 miWest (280°)17.3 mph25.3 mphScattered Clouds
Hourly data recorded from KVYS, located miles away from Peru, Illinois







STORIES FROM OUR PARTNERS